Regional Weather Roundup
Issued by NWS

Home | Current Version | Previous Version | Text Only | Print | Product List | Glossary On
Versions: 1 2 3 4 5 6 7 8 9 10 11 12 13 14 15 16 17 18 19 20 21 22 23 24 25 26 27
000
ASUS45 KBOU 110910
RWRCO

WEATHER ROUNDUP FOR COLORADO
NATIONAL WEATHER SERVICE DENVER/BOULDER CO
200 AM MST MON DEC 11 2017

NOTE: "FAIR" INDICATES FEW OR NO CLOUDS BELOW 12000 FEET WITH NO
SIGNIFICANT WEATHER AND/OR OBSTRUCTIONS TO VISIBILITY.

COZ001>005-013-030-031-111000-
...NORTHWEST COLORADO...

CITY           SKY/WX    TMP DP  RH WIND       PRES   REMARKS
CRAIG          FAIR       7   1  76 CALM      30.56R
HAYDEN         FAIR      19   8  62 E15       30.56R WCI   5
MEEKER         FAIR      14   3  61 NE5       30.55S WCI   6
RABBIT EARS PA FAIR      23   1  39 W12G17    30.55S WCI  12
STEAMBOAT SPGS FAIR      16   8  71 CALM      30.56R
WALDEN         FAIR       9  -2  61 SE3       30.54S
$$

COZ006>008-011-111000-
...WEST CENTRAL VALLEYS...

CITY           SKY/WX    TMP DP  RH WIND       PRES   REMARKS
GRAND JUNCTION FAIR      17   0  47 N7        30.55R WCI   8
MONTROSE       FAIR      17  -1  45 SE9       30.56F WCI   6
EAGLE          FAIR       9   4  80 E7        30.64S WCI  -2
RIFLE          FAIR      16   3  56 E6        30.58R WCI   7
DELTA          FAIR      17  -2  43 CALM      30.56S
NUCLA          FAIR      19  -9  27 SE6       30.56S WCI  11
$$

COZ017>023-064>068-111000-
...SOUTHWEST COLORADO...

CITY           SKY/WX    TMP DP  RH WIND       PRES   REMARKS
DURANGO        FAIR      11  -3  53 E3        30.49R
CORTEZ         FAIR       8  -3  61 S7        30.50F WCI  -3
PAGOSA SPRINGS FAIR      21  -4  32 CALM      30.49F
TELLURIDE      FAIR      29 -10  18 SE8       30.56S WCI  21
WOLF CREEK PAS FAIR      28  -9  19 NW6       30.64F WCI  22
$$

COZ009-010-012-014-032>034-037-058>063-111000-
...CENTRAL COLORADO...

CITY           SKY/WX    TMP DP  RH WIND       PRES   REMARKS
ASPEN          FAIR      16   2  54 S5        30.54R WCI   9
BUENA VISTA    FAIR      21  -4  33 NW9       30.50R WCI  11
COPPER MTN     NOT AVBL
BERTHOUD PASS  FAIR      19   9  63 NW18G25   30.57R WCI   4
COTTONWOOD PAS FAIR      39 -18   8 CALM      30.52R
GUNNISON       FAIR       5  -2  72 CALM      30.61S
KREMMLING      HAZE       3   0  85 CALM      30.64S VSB 1
LEADVILLE      FAIR      11 -10  38 CALM      30.54R
MONARCH PASS   FAIR      27  -9  20 W21       30.67F WCI  13
SALIDA         FAIR      27  -4  26 NW8       30.56S WCI  18
SUNLIGHT       FAIR      28 -18  12 NW7       30.62S WCI  21
WILKERSON PASS FAIR      32 -17  11 N14G28    30.55S WCI  22
$$

COZ069>075-111000-
...SAN LUIS VALLEY/SANGRE DE CRISTO MOUNTAINS...

CITY           SKY/WX    TMP DP  RH WIND       PRES   REMARKS
ALAMOSA        FAIR       3  -8  60 S6        30.51F WCI  -8
DEL NORTE      FAIR      24 -10  22 W17       30.51F WCI  10
LA VETA PASS   FAIR      27 -11  18 SW18        N/A  WCI  13
SAGUACHE       FAIR      27 -11  18 NW16      30.50F WCI  14
$$

COZ035-036-038>040-111000-
...NORTHERN COLORADO FRONT RANGE...

CITY           SKY/WX    TMP DP  RH WIND       PRES   REMARKS
DENVER INTL AP FAIR      35  -4  18 SW8       30.33R WCI  29
DMNS CITY PARK NOT AVBL
AURORA         CLEAR     38  -3  17 S10       30.34R
FRONT RANGE AP FAIR      38  -3  17 SW7       30.34R
ERIE MUNI ARPT FAIR      20   9  62 CALM      30.40R
BOULDER MUN AP FAIR      36   5  27 CALM      30.33S
CENTENNIAL     FAIR      38  -1  19 SW10      30.34R
BROOMFIELD     FAIR      41   0  17 CALM      30.34R
FORT COLLINS   FAIR      30  18  60 S5        30.32F WCI  25
LONGMONT       FAIR      26  10  52 W3        30.36R
$$

COZ041-046-047-076>085-087-088-111000-
...PIKES PEAK/PALMER DIVIDE AND SOUTHERN FOOTHILLS...

CITY           SKY/WX    TMP DP  RH WIND       PRES   REMARKS
COLO. SPRINGS  FAIR      36  -2  20 N8        30.35S
A. F. ACADEMY  FAIR      28  -4  24 NE8       30.35S WCI  20
SCHRIEVER AFB  FAIR      43  -6  12 N10       30.34S
CHEYENNE MTN   FAIR      46  -4  12 CALM      30.31S
ELLICOTT         N/A    N/A N/A N/A CALM      30.32F
FALCON         FAIR      33  -6  18 NW9       30.37S WCI  25
FORT CARSON    FAIR      35  -2  20 NW12      30.32S WCI  27
LIMON          FAIR      26  -4  27 NW5       30.32S WCI  20
MONUMENT HILL  FAIR      28  -2  26 SW8       30.38S WCI  20
CANON CITY     FAIR      45  -4  13 W18       30.34S
WALSENBURG     FAIR      41  -6  13 SW10      30.35F
TRINIDAD       FAIR      31   4  31 W14       30.35S WCI  21
$$

COZ042>045-048>051-090-091-111000-
...NORTHEAST COLORADO...

CITY           SKY/WX    TMP DP  RH WIND       PRES   REMARKS
GREELEY ARPT   FAIR      18   5  57 W5        30.33S WCI  11
AKRON          FAIR      31  -3  23 W15       30.30R WCI  20
BURLINGTON     FAIR      27   2  34 W13       30.28R WCI  16
WRAY           FAIR      30   3  31 SW7       30.26R WCI  23
YUMA           FAIR      28   3  34 W12       30.27S WCI  18
STERLING       FAIR      23   5  46 SW8       30.29R WCI  14
HOLYOKE        FAIR      43   7  22 W14       30.25R
FORT MORGAN    FAIR      25   1  34 W7        30.31S WCI  18
$$

COZ086-089-092>099-111000-
...SOUTHEAST COLORADO...

CITY           SKY/WX    TMP DP  RH WIND       PRES   REMARKS
PUEBLO         FAIR      21   1  41 W9        30.31F WCI  11
LA JUNTA       FAIR      30   3  31 W14       30.28F WCI  19
LAMAR          FAIR      24   1  36 SW7       30.27F WCI  16
SPRINGFIELD      N/A     31   4  31 NW12      30.28S WCI  22
$$




USA.gov is the U.S. government's official web portal to all federal, state and local government web resources and services.